DW3195 Weather Reports


time (UTC)temp
F
wind
direction
speed
knots
gust
knots
rain 1hr
in
rain 24hr
in
rain mn
in
humidity
%
barometer
mb
20260904181505 88 0 0.0 0.0 0.00 0.00 0.00 61 926.9
20260904181006 89 0 0.0 0.0 0.00 0.00 0.00 57 927.5
20260904180506 89 0 0.0 0.0 0.00 0.00 0.00 58 927.3
20260904180005 88 0 0.0 0.0 0.00 0.00 0.00 60 926.9
20260904174505 86 0 0.0 0.0 0.00 0.00 0.00 64 926.7
20260904174006 86 0 0.0 0.0 0.00 0.00 0.00 68 924.9
20260904173506 86 0 0.0 0.0 0.00 0.00 0.00 70 924.5
20260904173006 86 0 0.0 0.0 0.00 0.00 0.00 71 924.1
20260904171505 86 0 0.0 0.0 0.00 0.00 0.00 66 926.9
20260904171005 86 0 0.0 0.0 0.00 0.00 0.00 65 926.5
20260904170505 87 0 0.0 0.0 0.00 0.00 0.00 64 927.0
20260904170005 87 0 0.0 0.0 0.00 0.00 0.00 63 927.4
20260904164507 86 0 0.0 0.0 0.00 0.00 0.00 66 927.1
20260904164005 86 0 0.0 0.0 0.00 0.00 0.00 65 927.0
20260904163506 85 0 0.0 0.0 0.00 0.00 0.00 67 926.5
20260904163005 85 0 0.0 0.0 0.00 0.00 0.00 67 926.9
20260904161505 86 0 0.0 0.0 0.00 0.00 0.00 65 927.0
20260904160505 86 0 0.0 0.0 0.00 0.00 0.00 65 926.5
20260904160005 87 0 0.0 0.0 0.00 0.00 0.00 65 925.4
20260904154505 87 0 0.0 0.0 0.00 0.00 0.00 68 925.8
20260904154005 87 0 0.0 0.0 0.00 0.00 0.00 66 925.3
20260904153505 87 0 0.0 0.0 0.00 0.00 0.00 66 926.0
20260904153005 86 0 0.0 0.0 0.00 0.00 0.00 69 924.6
20260904151505 86 0 0.0 0.0 0.00 0.00 0.00 69 926.3
20260904150505 86 0 0.0 0.0 0.00 0.00 0.00 72 924.7
20260904150005 86 0 0.0 0.0 0.00 0.00 0.00 68 924.0
20260904144504 85 0 0.0 0.0 0.00 0.00 0.00 72 925.4
20260904144005 85 0 0.0 0.0 0.00 0.00 0.00 72 924.0
20260904143005 84 0 0.0 0.0 0.00 0.00 0.00 74 922.0
20260904141005 81 0 0.0 0.0 0.00 0.00 0.00 81 917.7
20260904140505 80 0 0.0 0.0 0.00 0.00 0.00 83 917.9
20260904140005 79 0 0.0 0.0 0.00 0.00 0.00 82 917.8
20260904134505 77 0 0.0 0.0 0.00 0.00 0.00 92 918.4
20260904134004 76 0 0.0 0.0 0.00 0.00 0.00 92 918.2
20260904133505 76 0 0.0 0.0 0.00 0.00 0.00 93 919.4
20260904133004 76 0 0.0 0.0 0.00 0.00 0.00 96 923.4
20260904131505 73 0 0.0 0.0 0.00 0.00 0.00 96 926.2
20260904131005 72 0 0.0 0.0 0.00 0.00 0.00 96 925.8
20260904130505 71 0 0.0 0.0 0.00 0.00 0.00 96 925.4
20260904124504 66 0 0.0 0.0 0.00 0.00 0.00 95 923.9
20260904124005 66 0 0.0 0.0 0.00 0.00 0.00 95 923.6
20260904123504 65 0 0.0 0.0 0.00 0.00 0.00 95 923.5
20260904123005 65 0 0.0 0.0 0.00 0.00 0.00 95 923.4
20260904121004 64 0 0.0 0.0 0.00 0.00 0.00 95 922.9
20260904120505 63 0 0.0 0.0 0.00 0.00 0.00 95 922.8
20260904120004 63 0 0.0 0.0 0.00 0.00 0.00 95 922.7
20260904114504 63 0 0.0 0.0 0.00 0.00 0.00 95 922.5
20260904114005 62 0 0.0 0.0 0.00 0.00 0.00 95 922.5
20260904113504 62 0 0.0 0.0 0.00 0.00 0.00 95 922.4
20260904113005 62 0 0.0 0.0 0.00 0.00 0.00 95 922.4
20260904111504 62 0 0.0 0.0 0.00 0.00 0.00 95 922.3
20260904111005 62 0 0.0 0.0 0.00 0.00 0.00 95 922.3
20260904110504 62 0 0.0 0.0 0.00 0.00 0.00 95 922.3
20260904110004 62 0 0.0 0.0 0.00 0.00 0.00 95 922.4
20260904104505 62 0 0.0 0.0 0.00 0.00 0.00 95 922.3
20260904104004 62 0 0.0 0.0 0.00 0.00 0.00 95 922.3
20260904103504 62 0 0.0 0.0 0.00 0.00 0.00 95 922.3
20260904103004 62 0 0.0 0.0 0.00 0.00 0.00 95 922.3
20260904101504 62 0 0.0 0.0 0.00 0.00 0.00 95 922.2
20260904101004 62 0 0.0 0.0 0.00 0.00 0.00 95 922.2
20260904100004 62 0 0.0 0.0 0.00 0.00 0.00 95 922.2
20260904094504 63 0 0.0 0.0 0.00 0.00 0.00 95 922.1
20260904094004 63 0 0.0 0.0 0.00 0.00 0.00 95 922.1
20260904093503 63 0 0.0 0.0 0.00 0.00 0.00 95 922.1
20260904093004 63 0 0.0 0.0 0.00 0.00 0.00 95 922.1
20260904091504 63 0 0.0 0.0 0.00 0.00 0.00 95 922.0
20260904091006 63 0 0.0 0.0 0.00 0.00 0.00 95 922.1
20260904090505 63 0 0.0 0.0 0.00 0.00 0.00 95 922.0
20260904090006 63 0 0.0 0.0 0.00 0.00 0.00 95 922.1
20260904084506 63 0 0.0 0.0 0.00 0.00 0.00 95 922.0
20260904084005 63 0 0.0 0.0 0.00 0.00 0.00 95 921.9
20260904083506 63 0 0.0 0.0 0.00 0.00 0.00 95 921.9
20260904083005 64 0 0.0 0.0 0.00 0.00 0.00 95 921.9
20260904081506 64 0 0.0 0.0 0.00 0.00 0.00 95 921.9
20260904080005 63 0 0.0 0.0 0.00 0.00 0.00 95 921.9
20260904074505 64 0 0.0 0.0 0.00 0.00 0.00 95 921.9
20260904074005 64 0 0.0 0.0 0.00 0.00 0.00 95 921.9
20260904073505 64 0 0.0 0.0 0.00 0.00 0.00 95 921.9
20260904073006 64 0 0.0 0.0 0.00 0.00 0.00 95 921.9
20260904071504 64 0 0.0 0.0 0.00 0.00 0.00 95 921.9
20260904071005 64 0 0.0 0.0 0.00 0.00 0.00 95 922.0
20260904070506 64 0 0.0 0.0 0.00 0.00 0.00 95 922.0
20260904070005 64 0 0.0 0.0 0.00 0.00 0.00 95 922.1
20260904064505 65 0 0.0 0.0 0.00 0.00 0.00 95 922.3
20260904064005 65 0 0.0 0.0 0.00 0.00 0.00 95 922.4
20260904063505 65 0 0.0 0.0 0.00 0.00 0.00 95 922.5
20260904061505 65 0 0.0 0.0 0.00 0.00 0.00 95 922.8
20260904061004 65 0 0.0 0.0 0.00 0.00 0.00 95 922.8
20260904060505 65 0 0.0 0.0 0.00 0.00 0.00 95 922.9
20260904054005 65 0 0.0 0.0 0.00 0.00 0.00 95 923.1
20260904053505 66 0 0.0 0.0 0.00 0.00 0.00 95 923.2
20260904053005 66 0 0.0 0.0 0.00 0.00 0.00 95 923.2
20260904051505 66 0 0.0 0.0 0.00 0.00 0.00 95 923.4
20260904051005 66 0 0.0 0.0 0.00 0.00 0.00 95 923.5
20260904050505 67 0 0.0 0.0 0.00 0.00 0.00 95 923.6
20260904050005 67 0 0.0 0.0 0.00 0.00 0.00 95 923.7
20260904044505 66 0 0.0 0.0 0.00 0.00 0.00 95 923.7
20260904044005 66 0 0.0 0.0 0.00 0.00 0.00 95 923.6
20260904043505 67 0 0.0 0.0 0.00 0.00 0.00 95 923.6
20260904043005 67 0 0.0 0.0 0.00 0.00 0.00 95 923.6
20260904041504 67 0 0.0 0.0 0.00 0.00 0.00 95 923.7
20260904041005 67 0 0.0 0.0 0.00 0.00 0.00 95 923.7
20260904040505 67 0 0.0 0.0 0.00 0.00 0.00 95 923.7
20260904040004 67 0 0.0 0.0 0.00 0.00 0.00 95 923.7
20260904034504 67 0 0.0 0.0 0.00 0.00 0.00 95 923.8
20260904034005 67 0 0.0 0.0 0.00 0.00 0.00 95 923.8
20260904033504 67 0 0.0 0.0 0.00 0.00 0.00 95 923.8
20260904033004 67 0 0.0 0.0 0.00 0.00 0.00 95 923.8
20260904031505 68 0 0.0 0.0 0.00 0.00 0.00 95 923.9
20260904031005 68 0 0.0 0.0 0.00 0.00 0.00 95 923.9
20260904030504 68 0 0.0 0.0 0.00 0.00 0.00 95 923.9
20260904024004 68 0 0.0 0.0 0.00 0.00 0.00 95 923.9
20260904023504 69 0 0.0 0.0 0.00 0.00 0.00 95 923.9
20260904023004 69 0 0.0 0.0 0.00 0.00 0.00 95 923.9
20260904021005 69 0 0.0 0.0 0.00 0.00 0.00 95 923.9
20260904020504 69 0 0.0 0.0 0.00 0.00 0.00 95 923.8
20260904020004 69 0 0.0 0.0 0.00 0.00 0.00 94 923.7
20260904014504 69 0 0.0 0.0 0.00 0.00 0.00 94 923.7
20260904014004 70 0 0.0 0.0 0.00 0.00 0.00 94 923.8
20260904013505 70 0 0.0 0.0 0.00 0.00 0.00 94 923.8
20260904013004 70 0 0.0 0.0 0.00 0.00 0.00 93 923.5
20260904011504 70 0 0.0 0.0 0.00 0.00 0.00 93 923.5
20260904011004 70 0 0.0 0.0 0.00 0.00 0.00 93 923.3
20260904010504 70 0 0.0 0.0 0.00 0.00 0.00 92 923.2
20260904010004 71 0 0.0 0.0 0.00 0.00 0.00 92 923.0
20260904004504 71 0 0.0 0.0 0.00 0.00 0.00 91 922.9
20260904004004 72 0 0.0 0.0 0.00 0.00 0.00 92 922.9
20260904003504 72 0 0.0 0.0 0.00 0.00 0.00 91 922.3
20260904003004 72 0 0.0 0.0 0.00 0.00 0.00 90 922.0
20260904001004 74 0 0.0 0.0 0.00 0.00 0.00 89 921.3
20260904000505 74 0 0.0 0.0 0.00 0.00 0.00 89 921.4
20260904000005 75 0 0.0 0.0 0.00 0.00 0.00 89 921.4
20260903234505 76 0 0.0 0.0 0.00 0.00 0.00 87 920.0
20260903234006 77 0 0.0 0.0 0.00 0.00 0.00 86 919.5
20260903233505 77 0 0.0 0.0 0.00 0.00 0.00 86 919.5
20260903233005 78 0 0.0 0.0 0.00 0.00 0.00 85 918.8
20260903231506 80 0 0.0 0.0 0.00 0.00 0.00 82 918.0
20260903231005 81 0 0.0 0.0 0.00 0.00 0.00 81 918.0
20260903230505 82 0 0.0 0.0 0.00 0.00 0.00 79 918.3
20260903230006 83 0 0.0 0.0 0.00 0.00 0.00 77 918.7
20260903224505 87 0 0.0 0.0 0.00 0.00 0.00 69 922.2
20260903224006 88 0 0.0 0.0 0.00 0.00 0.00 68 923.1
20260903223505 88 0 0.0 0.0 0.00 0.00 0.00 67 924.2
20260903223006 89 0 0.0 0.0 0.00 0.00 0.00 66 924.2
20260903221005 92 0 0.0 0.0 0.00 0.00 0.00 58 926.7
20260903220005 93 0 0.0 0.0 0.00 0.00 0.00 56 927.2
20260903214005 93 0 0.0 0.0 0.00 0.00 0.00 53 927.6
20260903213005 94 0 0.0 0.0 0.00 0.00 0.00 49 927.7
20260903211505 93 0 0.0 0.0 0.00 0.00 0.00 57 927.2
20260903211005 93 0 0.0 0.0 0.00 0.00 0.00 54 927.4
20260903210505 92 0 0.0 0.0 0.00 0.00 0.00 51 927.8
20260903204504 92 0 0.0 0.0 0.00 0.00 0.00 50 928.0
20260903204005 92 0 0.0 0.0 0.00 0.00 0.00 50 928.1
20260903203005 92 0 0.0 0.0 0.00 0.00 0.00 50 928.1
20260903201505 92 0 0.0 0.0 0.00 0.00 0.00 51 928.3
20260903201005 92 0 0.0 0.0 0.00 0.00 0.00 49 928.2
20260903200505 92 0 0.0 0.0 0.00 0.00 0.00 54 928.1
20260903200005 91 0 0.0 0.0 0.00 0.00 0.00 51 928.3
20260903194505 87 0 0.0 0.0 0.00 0.00 0.00 61 927.4
20260903194005 86 0 0.0 0.0 0.00 0.00 0.00 65 926.7
20260903191505 91 0 0.0 0.0 0.00 0.00 0.00 50 928.5
20260903191005 90 0 0.0 0.0 0.00 0.00 0.00 52 928.6
20260903190004 90 0 0.0 0.0 0.00 0.00 0.00 53 928.6
20260903184505 89 0 0.0 0.0 0.00 0.00 0.00 56 928.6